Volver al catálogo

STARLINK-38268

ActivoComunicacionesSSO
NORAD 100321·PAYLOAD·🇺🇸 United States

Lanzado Aug 12, 2026 desde Vandenberg Space Force Base

Loading…

Próximos Pases (próximas 24 horas)

TLE

ActualizadoSource: Space-Track

Época: Sep 14, 2026, 15:12 UTC

1 A0321U 26184W   26257.63350618  .00008970  00000-0  25017-3 0  9993
2 A0321  97.2837 122.8715 0002069  96.4659 263.6821 15.36981042  6469

Sigue STARLINK-38268 en tiempo real con AllMySat

Download on the App Store